Location: Lane
(33.5226°N, 79.8788°W)
Time: 03:29:39
(UTC+00:00)

Tiros 1 despin weight - Pass Details

Date: 04 October 2022
Orbit: 590 x 637 km, 48.2° (Epoch: 30 November)

Event Time Altitude Azimuth Distance (km) Brightness Sun altitude
Rises 18:33:20 0° 195° (SSW) 2,804 ? 46.9°
Reaches altitude 10° 18:36:02 10° 179° (S) 1,912 ? 46.6°
Maximum altitude 18:39:18 20° 131° (SE) 1,368 ? 46.2°
Drops below altitude 10° 18:42:35 10° 83° (E) 1,937 ? 45.9°
Sets 18:45:21 0° 67° (ENE) 2,852 ? 45.5°
